Wind_Speed
24 24 25 26 27 28 29 30 30 29 29 28 27 25 25 24 23 22 22 23 23 25 25 25 25 24 25 25 25 24 24 23 22 22 21 21 21 21 21 20 19 19 19 19 17 16 14 14 16 16 16 16 15 14 13 12 12 12 14 15 15 14 14 14 13 14 16 17 16 16 16 17 18 18 18 18 19 19 19 19 19 19 19 19 20
23 24 25 25 26 26 26 27 28 28 28 28 27 26 25 25 24 24 24 24 24 25 26 26 25 25 25 25 25 25 24 24 24 23 22 21 22 23 22 22 21 20 20 19 18 17 16 15 16 17 17 17 16 16 16 15 13 13 14 15 16 16 16 16 15 15 16 18 18 17 17 18 19 20 21 21 21 21 21 21 21 21 22 22 22
22 23 24 25 25 25 25 26 26 27 27 27 27 27 26 26 25 25 25 25 25 26 27 27 26 26 26 26 25 25 24 24 24 24 23 22 23 23 23 23 22 21 20 19 19 18 17 16 16 17 18 17 17 18 18 16 15 14 15 16 17 18 18 17 17 17 17 18 19 19 19 19 20 21 22 22 22 22 22 23 23 23 23 23 24
23 23 24 24 25 25 26 26 26 27 27 27 27 27 26 26 26 26 26 26 26 27 28 28 28 27 27 26 26 25 24 24 24 24 23 23 23 24 24 23 22 21 20 19 19 19 19 18 17 17 18 18 18 19 20 18 17 16 16 17 18 19 19 19 18 19 19 19 19 19 20 20 21 22 22 22 23 23 23 23 23 23 22 22 22
24 23 23 24 25 26 27 27 26 26 26 26 27 26 26 26 27 27 27 27 28 28 29 30 29 28 28 27 26 25 24 23 23 23 23 23 23 24 24 23 22 21 20 19 20 20 20 19 18 19 20 19 18 18 20 20 20 19 18 18 19 20 21 20 20 20 20 20 20 21 21 21 22 22 23 23 23 23 23 23 23 22 21 21 22
25 24 24 25 26 27 27 26 26 26 26 26 26 26 26 26 27 27 28 28 28 29 31 31 30 29 28 27 27 25 24 24 23 23 24 24 24 24 23 22 21 21 20 19 19 20 20 20 20 20 21 20 19 19 20 22 22 21 19 19 20 21 22 22 21 22 21 21 21 21 22 22 21 22 23 23 23 23 23 22 21 21 21 22 25
26 25 26 27 28 27 26 26 26 25 26 25 25 25 25 26 27 27 28 28 29 30 31 31 31 29 29 28 28 26 25 25 24 24 25 25 24 23 23 22 21 21 20 19 18 19 20 22 22 22 22 23 22 22 23 23 23 22 22 21 22 23 23 24 23 23 23 22 22 21 22 22 22 22 23 24 24 24 23 21 19 21 24 27 28
28 27 28 28 29 28 26 26 26 26 25 25 25 25 25 25 26 27 28 29 30 31 32 32 31 30 30 30 29 28 27 27 26 25 25 25 23 22 22 22 21 20 19 18 18 18 19 22 24 23 23 25 26 25 25 24 23 23 23 23 23 24 25 25 25 25 24 23 23 23 23 23 23 23 23 23 24 25 26 25 24 26 29 30 28
29 28 29 30 29 28 28 28 28 27 27 26 25 26 26 25 26 26 28 29 31 32 33 32 32 32 31 31 31 31 30 29 27 26 25 24 23 22 22 22 22 21 20 19 18 17 17 21 25 26 25 26 28 28 27 26 24 24 25 26 25 25 25 26 26 27 26 25 25 25 25 25 24 23 24 24 25 26 27 28 30 32 30 25 22
30 30 31 31 30 30 30 30 30 29 28 27 27 26 26 26 26 26 28 29 30 32 33 33 33 33 33 33 33 33 33 31 29 27 26 25 24 24 24 23 23 22 20 19 18 16 15 19 26 29 27 26 28 29 29 28 26 24 25 27 27 26 26 26 26 27 26 26 27 27 28 26 24 24 26 26 27 27 28 30 32 30 27 23 22
31 31 32 32 32 32 32 32 32 31 30 29 28 27 27 27 26 27 28 29 30 32 33 34 34 34 34 34 35 35 35 33 30 29 28 27 26 26 25 24 25 24 21 20 18 15 14 19 27 31 29 27 28 30 31 30 28 26 26 28 28 28 27 26 26 27 27 27 28 29 29 27 25 26 28 28 27 27 29 30 30 27 26 27 27
33 33 32 32 33 34 34 34 34 33 32 31 30 29 28 28 28 28 28 29 30 32 34 35 35 35 36 36 36 37 36 34 32 31 31 29 28 27 26 25 26 26 24 22 20 16 15 22 29 32 31 29 30 31 31 32 31 29 28 28 29 29 28 27 27 27 27 28 28 29 29 28 27 27 28 27 27 28 29 29 28 28 28 30 31
34 34 33 32 33 35 35 36 36 35 35 34 33 31 31 30 30 29 29 30 31 33 35 36 36 37 37 38 38 38 37 35 34 33 32 30 29 28 27 26 27 28 27 25 22 18 18 26 31 34 33 31 31 34 33 32 32 31 29 29 28 29 29 28 27 28 28 28 28 29 29 28 27 27 26 27 27 28 28 27 28 29 31 32 34
32 33 33 31 32 34 35 37 37 37 37 36 36 35 34 33 32 31 31 32 33 34 36 37 38 38 39 39 39 39 38 37 36 35 33 31 30 29 28 27 28 29 29 28 24 19 22 30 33 35 36 32 30 34 35 33 31 31 30 29 27 28 30 29 28 29 29 30 30 29 29 30 28 27 27 27 28 28 28 28 29 31 32 34 36
30 31 32 31 31 33 36 38 38 38 38 38 39 39 38 36 35 35 35 34 35 35 36 37 38 39 40 40 40 39 39 39 37 36 34 32 31 30 29 29 30 30 28 28 25 20 24 32 34 37 39 34 31 34 35 34 32 31 31 29 27 28 31 30 29 30 30 32 31 29 29 30 30 28 28 28 29 29 29 30 31 32 34 36 37
30 31 32 33 34 36 37 38 39 40 40 40 41 41 41 40 39 38 38 37 37 37 37 38 39 40 40 40 41 41 40 40 39 36 34 33 32 32 31 30 30 30 28 27 25 20 22 28 32 37 39 35 32 34 35 34 33 31 30 30 29 30 32 31 31 31 32 32 32 31 30 31 30 28 28 29 30 30 30 31 33 34 36 38 39
32 31 31 32 33 36 37 38 39 40 41 42 42 43 43 42 42 41 41 40 40 40 39 39 40 40 41 41 42 41 41 41 40 37 35 34 34 33 31 30 31 31 28 26 23 19 21 27 31 35 36 34 33 36 36 35 33 31 30 29 30 31 32 31 32 33 32 33 34 33 32 30 29 29 29 30 30 30 31 32 33 35 38 40 42
29 27 26 27 28 30 33 35 38 40 42 43 43 43 44 44 44 44 43 43 42 42 40 40 41 41 41 41 41 41 41 41 39 37 36 35 34 33 31 30 32 32 30 27 23 21 24 28 29 30 31 33 35 37 36 35 33 32 31 29 30 32 31 31 33 34 34 34 33 32 31 29 29 29 30 31 31 31 32 33 35 37 39 41 43
27 24 24 24 24 26 29 31 33 37 39 40 41 42 42 43 45 46 46 45 45 44 43 42 42 42 42 42 41 41 41 40 39 38 37 36 35 33 31 31 32 31 29 27 25 26 28 29 27 27 28 31 34 35 35 35 34 32 30 30 32 33 32 31 33 34 34 34 33 31 30 29 28 29 30 31 31 32 33 34 36 39 41 43 45
27 26 26 26 26 29 31 32 33 34 36 36 36 37 38 40 42 44 46 47 47 47 46 45 45 44 43 43 42 42 41 41 40 38 37 36 35 34 34 33 32 30 28 27 27 28 29 28 26 25 27 29 33 34 34 34 34 32 30 31 32 32 31 32 34 34 34 33 33 31 29 28 29 30 31 31 31 32 34 36 38 40 42 44 45
27 28 29 29 30 31 32 32 31 32 31 30 30 32 34 36 38 41 44 47 49 50 49 49 48 47 46 45 44 43 43 42 41 38 38 38 37 36 36 35 33 31 30 29 28 28 28 26 24 24 27 29 30 32 32 31 31 30 30 31 31 30 30 31 33 33 33 33 32 30 28 28 29 30 30 31 31 33 35 37 38 40 42 43 41
28 30 30 31 32 32 32 32 32 32 32 31 29 30 30 31 33 35 39 43 47 50 51 52 51 50 49 48 46 46 46 45 43 40 40 41 39 38 38 34 31 33 33 29 27 26 27 26 25 25 27 28 28 28 27 26 26 27 28 29 27 27 29 30 31 31 30 29 28 26 27 27 28 29 29 31 33 35 36 38 39 41 41 39 37
33 33 33 34 35 35 35 35 35 36 35 34 32 31 30 31 31 32 34 37 41 45 49 53 54 54 53 52 50 49 48 47 45 43 42 43 41 39 38 31 26 29 33 30 26 27 28 27 26 26 26 26 24 24 23 22 23 23 24 24 24 25 28 29 28 27 26 24 24 25 26 26 27 28 29 31 34 35 37 38 39 39 38 36 34
37 38 38 38 38 38 38 38 38 39 38 37 36 36 35 35 36 36 37 37 38 40 43 49 54 56 57 56 54 53 52 49 47 45 45 45 42 40 41 34 23 24 28 27 27 29 29 28 27 26 24 22 21 21 21 20 20 20 21 24 27 28 28 26 24 23 22 22 23 24 25 25 26 28 30 32 34 36 37 38 38 37 36 34 33
38 40 41 41 41 40 41 41 41 42 42 42 43 42 42 42 42 42 42 42 42 41 42 45 49 53 57 59 58 57 55 52 50 48 47 46 43 42 41 34 25 24 26 26 28 29 28 27 25 23 20 18 18 19 19 19 20 22 24 27 28 27 25 23 22 21 21 21 22 23 24 25 26 29 31 33 34 36 37 37 36 35 34 32 31
37 38 39 41 42 43 46 47 46 47 48 50 50 50 49 48 48 48 48 47 45 44 45 46 46 48 53 59 61 59 57 55 54 52 50 48 46 44 39 31 28 31 31 30 30 29 26 24 22 19 17 17 17 18 18 19 20 21 23 24 23 22 21 20 19 19 19 20 21 23 24 25 27 29 31 33 35 36 36 35 33 33 31 30 29
39 39 40 41 42 44 47 49 49 50 51 54 56 56 55 53 53 54 55 53 51 49 49 50 48 46 49 56 61 60 57 56 56 55 54 51 48 45 40 35 35 36 34 32 31 28 25 24 21 17 16 17 17 17 18 19 19 18 19 19 19 18 18 18 18 18 19 20 21 23 24 26 28 30 32 34 35 35 34 33 31 30 29 28 28
41 41 42 43 43 45 47 49 50 51 52 53 56 59 61 61 60 60 61 60 57 55 54 52 51 50 51 54 60 60 57 56 56 55 54 52 49 46 42 40 39 36 32 31 30 28 27 25 21 17 17 17 18 18 18 18 18 17 17 17 16 16 16 17 17 18 19 19 21 23 25 27 30 31 33 34 34 34 33 31 29 28 28 28 28
43 44 45 46 46 47 48 49 51 52 53 54 55 57 60 63 65 66 66 65 63 61 59 56 53 53 55 57 59 59 56 53 51 50 50 50 48 45 42 39 36 33 31 31 30 29 27 24 19 18 18 18 18 18 18 18 18 17 17 16 16 16 16 16 17 18 18 20 23 25 27 29 30 32 32 32 32 32 30 29 28 27 27 28 28
44 46 48 48 48 49 51 52 53 55 56 57 58 59 59 61 64 67 68 69 68 66 64 62 57 55 57 61 60 55 50 44 41 43 46 46 44 42 40 37 35 33 33 33 30 27 25 21 18 18 19 19 19 19 19 20 19 18 17 16 15 15 15 16 18 18 20 22 24 26 27 29 30 31 31 31 30 29 28 27 27 27 27 27 27
45 46 46 46 46 48 49 51 53 55 56 58 60 62 62 63 65 66 68 70 70 69 68 67 65 61 59 61 58 51 45 39 35 35 39 42 42 41 38 36 36 36 35 33 28 23 21 19 18 19 19 20 21 20 21 21 19 18 17 16 15 16 16 17 19 20 22 24 25 26 27 29 29 30 29 29 28 26 26 26 26 26 26 27 27
44 44 43 43 44 46 47 50 53 55 57 59 61 63 66 68 69 69 68 68 69 71 71 70 69 66 62 60 55 48 43 39 33 30 33 38 40 39 36 35 37 36 33 29 23 19 18 18 18 20 21 22 22 21 21 21 20 18 17 16 16 17 18 20 21 22 23 24 25 26 27 28 28 28 28 27 26 25 25 25 25 25 25 26 26
36 36 36 38 40 41 42 44 46 48 50 53 56 61 66 70 72 73 72 69 69 71 72 70 69 65 58 54 51 47 44 40 33 30 31 32 32 33 34 34 34 32 28 24 19 17 17 19 20 20 22 22 22 22 23 22 21 19 18 18 18 19 21 22 23 23 24 24 25 26 27 27 27 27 26 25 24 24 24 23 23 24 24 24 25
23 23 24 26 27 28 29 30 32 35 38 40 42 46 53 60 67 68 68 68 69 71 70 68 68 64 55 49 48 47 44 40 33 29 29 26 24 27 32 35 33 29 24 20 18 17 18 19 20 20 21 22 23 23 24 23 22 21 21 20 20 21 23 24 23 23 24 25 25 26 26 26 26 26 25 24 23 23 22 21 22 23 23 23 24
17 17 17 19 21 23 26 27 30 32 32 28 25 27 31 39 50 57 62 68 72 72 72 70 68 63 54 48 49 49 45 40 34 28 24 23 23 28 34 36 32 26 21 18 17 16 16 18 20 21 22 23 23 24 25 25 24 23 22 21 22 24 25 24 24 24 25 26 26 26 26 25 25 24 23 23 22 21 20 20 21 22 22 23 23
16 16 18 20 23 25 26 26 26 25 22 20 19 17 19 19 18 18 36 59 64 63 68 74 72 67 60 51 47 46 40 35 31 27 24 26 29 32 33 31 27 22 19 17 16 15 17 19 22 23 23 23 23 24 25 25 25 24 23 23 24 26 25 24 24 25 25 26 26 26 25 24 23 23 22 22 20 19 18 18 20 21 22 22 23
16 17 19 20 21 22 21 20 19 18 18 17 17 15 15 18 26 21 13 40 41 30 36 46 48 54 56 48 40 38 34 31 30 29 30 33 35 33 30 26 24 21 19 17 17 18 20 22 22 22 22 22 23 24 24 25 24 23 23 24 26 26 25 25 25 25 25 26 26 25 24 23 22 22 21 20 18 17 17 18 19 20 21 22 22
15 16 16 16 16 17 17 15 14 15 15 14 14 14 14 17 27 24 9 19 17 4 15 26 28 34 39 35 30 29 28 28 29 31 34 35 33 28 24 22 21 20 18 18 20 21 22 22 23 22 22 22 22 23 23 23 23 23 24 25 26 26 25 25 25 25 26 26 25 24 23 23 22 21 20 18 16 16 17 18 19 19 20 21 22
13 13 12 12 13 15 16 15 15 15 15 13 12 15 16 16 18 18 11 5 1 3 9 15 18 21 22 20 20 21 23 26 30 33 34 32 27 23 21 21 21 20 19 20 21 21 21 22 22 22 21 21 21 22 22 22 22 23 25 26 26 25 25 25 25 25 26 25 24 24 23 22 21 20 18 16 15 16 17 18 18 19 19 21 21
12 12 12 12 13 14 15 15 15 15 15 14 14 14 15 16 16 15 12 9 6 5 5 4 5 7 9 13 19 22 24 27 29 29 28 25 22 21 21 22 23 24 23 22 21 20 20 21 21 21 21 21 21 22 22 22 23 25 26 26 25 25 25 25 25 25 25 25 24 24 22 21 20 18 16 15 15 16 16 17 18 18 19 20 21
12 12 12 12 12 13 14 15 15 14 14 13 12 11 10 11 12 12 10 9 8 6 4 1 6 9 10 13 18 20 20 20 19 19 19 19 19 20 22 24 24 23 21 20 19 19 20 21 21 21 21 22 22 23 23 24 25 25 25 25 25 25 25 25 25 25 24 24 23 23 21 20 18 16 15 14 15 15 16 16 17 17 19 20 20
13 12 12 11 10 11 11 12 12 13 13 12 11 10 8 7 6 6 7 6 6 5 4 4 5 7 8 9 11 13 13 13 13 14 15 17 18 19 20 21 20 19 19 19 20 20 21 22 21 21 22 22 23 24 24 25 25 25 25 25 25 25 25 25 24 24 23 23 22 22 20 18 16 15 14 14 15 15 15 15 16 17 18 19 19
13 13 13 12 11 10 10 9 9 9 10 10 9 9 9 8 7 6 5 5 4 3 2 2 2 3 5 7 8 9 10 12 13 14 14 15 16 16 17 18 18 18 19 20 20 20 21 21 21 22 22 22 23 24 25 25 25 25 25 25 25 25 24 24 23 23 22 22 22 21 19 17 15 14 14 14 14 15 15 15 15 16 17 18 19
13 13 14 14 14 13 12 11 10 9 9 9 10 10 10 10 9 8 7 6 5 4 2 0 2 3 5 7 8 8 9 10 11 11 12 13 14 15 16 16 17 18 19 19 20 20 21 21 21 21 22 23 24 25 26 26 25 25 25 25 24 23 23 23 22 22 22 22 22 21 18 16 15 13 13 14 15 15 15 15 15 16 16 17 18
14 14 14 14 14 14 14 14 15 15 15 14 13 12 12 11 11 11 10 10 10 9 7 7 7 8 9 9 9 10 12 13 13 13 14 15 15 16 17 18 19 19 19 20 20 20 21 21 21 21 22 24 25 26 26 26 25 25 24 23 23 22 22 22 22 23 23 22 21 20 18 16 14 13 13 15 16 16 16 16 15 15 16 17 18
14 15 14 13 12 13 13 14 15 15 14 13 13 12 11 10 9 9 10 10 9 9 8 8 8 9 10 10 10 12 13 14 15 16 16 17 17 18 18 19 19 19 20 20 20 20 21 21 22 23 24 25 26 26 26 26 25 23 23 22 22 22 22 22 23 23 23 22 21 19 18 16 14 14 14 16 17 17 17 16 15 15 15 16 18
14 14 14 13 11 8 7 8 9 9 9 10 10 9 9 9 7 6 5 5 5 7 9 10 11 11 11 11 12 13 15 15 16 17 17 17 17 18 18 19 19 19 20 20 20 20 21 22 23 24 25 25 26 26 26 25 24 23 23 23 22 22 23 23 23 22 22 21 21 19 18 16 15 15 15 17 18 18 17 16 15 15 15 16 18
14 14 14 13 11 8 6 6 7 6 6 8 8 8 8 9 8 7 6 7 9 10 11 12 13 13 12 13 14 15 15 16 17 17 17 17 17 18 18 19 19 19 20 20 20 21 22 23 24 25 25 26 26 26 25 24 24 24 24 24 24 24 23 23 22 22 22 22 21 20 18 16 15 15 15 16 17 17 17 16 15 15 15 16 18
13 13 13 12 11 9 9 10 11 10 8 8 8 9 9 10 9 9 11 13 14 13 13 13 13 13 13 14 15 16 16 16 16 16 17 17 17 18 18 19 19 19 19 20 21 22 23 24 25 25 26 26 26 26 25 24 24 24 24 24 24 24 23 22 22 22 21 21 21 19 18 16 15 15 15 15 16 17 16 15 15 15 16 17 18
12 12 12 11 10 10 10 11 13 13 12 10 9 8 8 9 9 11 13 14 15 15 16 17 16 15 15 15 14 15 16 16 16 16 16 16 16 17 17 18 18 19 19 20 21 22 23 25 26 26 26 27 26 25 24 24 23 23 23 24 24 24 23 22 22 21 21 20 20 19 18 17 16 16 15 16 16 16 16 15 15 15 16 17 18
11 12 12 12 12 12 12 13 14 15 15 14 12 10 9 10 9 10 13 15 16 16 17 17 16 16 18 19 18 16 16 16 15 15 15 15 15 16 16 17 18 19 20 20 22 23 25 26 26 26 26 26 25 25 24 23 23 23 23 23 24 24 23 22 22 21 21 20 19 18 18 17 17 16 16 16 16 16 16 15 15 16 17 17 18
Wind_Direction
232 234 236 237 236 236 236 237 238 238 238 239 240 239 238 237 234 229 224 219 215 213 213 214 215 217 218 219 222 226 231 236 241 246 249 253 257 261 264 270 277 282 285 289 292 293 293 296 302 306 309 313 315 313 309 306 306 303 294 287 284 282 282 283 282 280 282 286 290 292 293 295 297 298 299 299 299 300 300 300 300 301 302 304 307
229 230 233 235 236 236 236 237 237 237 237 237 239 238 237 237 235 231 226 221 216 213 213 213 214 216 219 220 222 226 231 236 242 246 250 255 258 262 264 269 273 277 281 285 286 286 286 288 293 297 301 306 309 310 308 301 298 300 296 288 283 280 279 279 280 279 279 282 285 287 288 290 293 295 297 299 300 301 303 304 306 307 307 308 310
227 228 230 234 235 235 236 236 236 236 235 235 236 237 236 237 236 233 228 224 218 214 213 214 214 215 219 221 222 225 230 235 240 245 249 253 257 261 264 268 271 274 277 281 281 282 283 285 287 289 292 298 301 305 306 299 291 293 294 289 283 280 277 277 279 279 278 277 279 282 286 290 293 294 296 297 297 298 300 302 304 304 305 306 308
226 227 228 230 233 233 235 236 236 235 234 233 233 235 235 236 235 233 230 225 219 214 213 214 214 215 218 221 222 224 229 233 239 244 247 251 255 259 263 266 269 271 273 276 277 279 281 282 283 282 283 289 294 300 303 299 290 288 289 288 284 280 278 277 278 279 279 278 278 281 287 291 293 293 294 294 293 293 294 296 297 297 298 301 305
225 226 227 228 230 232 234 235 235 234 233 232 232 232 233 233 233 232 230 226 220 215 213 214 215 216 218 220 222 224 228 232 237 242 246 249 252 256 260 263 267 269 271 273 273 275 277 280 280 278 277 280 286 291 295 294 289 285 284 285 284 281 281 280 280 281 282 282 282 283 287 290 293 294 293 292 290 289 290 291 291 291 295 301 307
224 225 226 228 230 233 235 235 234 233 232 232 232 231 231 231 230 230 228 225 221 216 214 215 216 216 218 221 223 224 228 232 236 242 245 247 249 253 258 261 264 267 268 269 270 272 274 276 277 277 277 277 278 282 286 287 285 282 281 282 283 283 283 281 281 284 286 287 287 287 288 291 293 295 295 292 291 290 288 288 289 295 300 305 310
224 225 226 229 232 234 235 234 234 234 233 233 232 231 230 228 228 227 226 224 221 217 215 216 217 218 219 222 224 225 228 232 236 240 243 246 248 251 255 258 260 262 264 265 268 272 275 277 278 277 277 277 277 280 283 284 281 278 276 277 280 283 284 282 282 284 288 291 293 291 289 291 293 294 293 293 293 292 287 284 287 296 301 304 308
223 224 226 229 232 233 234 234 234 234 234 234 233 231 230 228 227 226 224 222 219 217 216 217 218 219 220 223 224 226 228 231 234 237 241 245 247 249 253 255 256 258 260 263 267 274 282 284 282 280 279 280 281 281 281 282 280 276 272 273 277 281 283 283 283 285 288 292 294 292 290 291 294 294 293 293 293 289 286 286 291 296 299 301 303
224 225 227 229 230 231 233 234 235 235 234 233 231 231 230 228 227 226 224 222 219 217 217 218 219 220 221 223 224 226 229 230 232 236 240 242 244 248 252 255 255 256 258 262 267 276 289 295 292 286 280 280 282 281 280 282 282 277 270 270 274 278 281 284 286 287 288 289 291 291 291 293 296 296 294 293 290 285 284 289 296 298 298 298 301
225 226 228 229 230 231 233 235 236 236 236 234 233 232 232 230 229 227 225 224 221 218 218 219 220 221 222 224 225 227 230 231 232 236 239 239 241 243 248 254 258 258 258 261 266 271 287 303 301 291 281 277 278 278 278 281 283 280 273 269 271 274 278 283 288 287 284 285 288 289 290 292 294 293 292 292 289 286 287 292 295 295 296 298 305
227 228 229 230 232 232 233 235 236 237 238 237 236 235 234 233 231 229 227 225 223 221 221 222 223 223 224 225 227 230 232 232 233 236 238 237 238 241 245 251 257 260 259 260 263 265 283 304 301 290 282 278 276 275 275 277 280 281 277 272 271 272 275 281 285 284 281 282 285 286 287 288 289 289 290 289 287 287 291 294 293 293 297 302 307
230 230 231 232 233 234 234 235 236 237 238 239 238 236 236 235 233 231 230 227 226 224 224 225 225 225 226 227 229 231 233 234 235 236 237 236 236 239 242 246 254 259 259 261 261 259 280 297 292 284 281 280 277 275 273 274 277 280 280 276 273 272 275 279 281 279 278 280 283 284 285 284 284 286 288 287 287 290 293 295 294 295 300 305 309
233 234 236 236 236 236 236 236 236 237 238 239 239 238 237 236 235 234 233 231 228 228 227 228 228 227 228 229 230 232 234 235 236 237 237 236 236 240 243 245 250 254 257 261 260 258 276 289 287 283 279 277 279 279 275 273 275 277 280 280 276 274 274 277 279 276 274 277 281 284 282 280 281 284 285 286 288 291 294 296 296 297 302 306 310
237 240 241 242 242 241 240 239 238 238 238 237 238 239 238 237 236 235 235 233 232 231 230 229 230 229 230 230 231 233 234 235 236 237 236 235 237 242 245 245 248 251 255 260 260 260 276 281 280 278 273 270 275 278 276 275 274 274 278 280 279 275 272 273 276 275 273 274 277 279 278 277 279 282 284 286 289 292 295 299 299 300 303 306 310
241 244 245 246 245 244 243 241 240 239 238 237 237 238 239 238 237 236 235 235 235 234 232 231 232 231 231 232 232 233 235 236 236 236 234 234 238 244 246 246 248 249 252 260 259 260 273 275 271 269 268 267 271 274 274 274 272 271 274 276 276 273 270 271 273 273 272 272 273 274 276 276 279 282 284 286 289 292 297 301 302 302 304 306 309
245 246 246 246 245 244 244 243 242 241 240 238 237 238 238 238 237 237 236 236 236 236 234 232 232 232 232 232 232 234 235 236 236 235 233 233 238 244 245 247 251 251 252 258 257 258 278 280 269 264 266 267 269 270 271 272 269 268 270 271 272 270 268 269 271 269 269 269 272 276 277 278 279 282 284 288 291 294 298 301 301 302 304 307 310
243 243 244 245 245 245 245 244 244 243 242 241 240 239 238 237 237 237 237 237 237 238 237 234 233 232 232 232 233 234 235 236 236 234 232 233 239 243 244 247 252 253 256 260 256 259 281 282 268 262 264 265 266 267 267 268 267 266 265 266 269 269 267 267 268 267 265 265 270 277 279 279 279 281 285 289 292 295 298 300 300 302 305 309 311
238 239 241 244 246 248 248 247 246 246 245 244 243 242 241 239 237 236 237 237 238 240 240 238 236 234 233 232 233 235 236 237 236 234 233 234 239 242 244 245 249 253 257 259 254 254 265 266 261 261 263 262 264 266 266 265 265 263 262 261 262 264 265 265 264 263 262 263 270 277 279 278 278 280 285 290 293 296 297 298 300 303 307 310 311
238 240 244 248 251 255 256 254 252 251 250 249 247 246 245 243 240 237 236 237 238 239 240 240 239 237 235 234 234 235 236 237 236 235 234 236 240 243 244 244 248 254 256 253 248 249 253 252 254 260 261 258 260 263 262 262 263 261 258 256 256 258 260 261 259 258 259 263 271 277 277 276 276 278 284 289 293 295 297 298 301 304 308 311 312
240 243 247 249 250 251 252 253 253 253 251 250 250 250 248 247 244 240 238 238 238 238 238 240 241 240 238 236 235 235 236 238 238 237 237 239 241 244 244 245 248 251 251 251 255 257 256 252 253 260 261 259 257 257 257 258 258 256 254 253 254 255 256 256 256 256 257 263 270 274 273 272 273 277 284 289 292 295 297 299 302 306 309 311 311
245 248 251 253 253 252 252 252 253 253 251 250 249 248 247 246 245 243 241 239 238 239 238 239 241 242 239 237 236 236 237 238 239 238 239 241 243 244 246 247 249 251 250 251 258 262 260 258 261 263 262 260 258 256 256 257 258 255 251 250 251 251 251 252 253 254 259 264 269 270 269 270 273 278 284 288 292 295 297 299 303 307 309 309 309
245 248 252 255 255 255 256 256 258 259 257 253 248 245 243 243 243 243 242 240 239 240 239 238 239 240 240 239 238 237 238 239 239 238 239 242 243 246 247 244 243 248 249 249 256 264 263 262 264 263 259 257 259 259 259 260 260 255 249 247 248 249 250 252 254 257 261 264 265 266 267 269 274 280 285 290 294 296 297 300 305 307 308 308 309
240 243 246 247 248 250 251 252 254 257 256 252 247 244 243 244 244 243 242 241 240 241 241 240 239 238 239 239 238 238 238 239 239 239 239 241 243 247 249 243 233 234 239 242 252 260 261 261 262 260 257 257 260 262 262 261 260 255 249 247 246 247 251 256 259 259 260 261 261 263 267 271 277 283 288 292 294 295 298 303 306 307 308 310 311
242 246 248 248 249 249 249 250 252 253 252 250 246 245 245 247 247 246 245 242 241 241 242 242 240 239 238 238 237 237 238 239 239 239 240 242 243 245 249 250 237 221 226 238 249 253 256 259 260 257 255 259 262 261 260 261 256 245 238 241 244 247 253 257 257 256 257 259 262 266 271 276 281 287 290 292 293 296 301 305 307 308 309 311 312
250 252 252 253 253 251 250 252 254 254 255 254 252 251 250 249 248 247 246 243 241 242 243 243 242 241 240 239 237 236 236 237 237 238 240 241 242 244 248 250 244 232 235 247 254 256 260 260 256 253 255 260 262 260 260 260 252 238 233 238 244 248 250 250 252 254 258 262 266 271 276 281 286 289 290 292 295 299 303 305 307 308 309 310 311
255 256 256 255 254 251 248 249 250 251 253 254 253 253 253 252 251 251 250 248 245 244 244 244 244 242 241 240 239 237 236 235 235 236 238 239 241 243 243 240 239 243 249 256 261 266 268 263 257 256 259 261 262 261 260 257 252 244 240 240 241 243 245 248 253 258 262 267 272 277 281 285 288 290 291 294 298 301 303 305 306 307 307 308 309
254 255 255 255 253 252 250 250 250 251 252 253 252 252 252 253 253 253 253 253 250 247 246 245 244 244 243 241 240 238 235 234 234 234 235 236 238 240 238 234 238 246 253 260 267 271 269 265 263 262 262 263 263 262 259 255 249 242 237 237 238 242 246 251 255 260 266 272 277 282 285 288 290 291 294 297 301 302 303 304 305 305 306 307 309
258 257 257 255 254 254 253 253 253 254 254 254 253 252 252 252 252 252 253 253 252 250 249 247 244 244 242 240 240 239 235 231 231 232 232 233 235 236 236 235 239 247 255 262 266 267 266 268 270 266 263 263 263 261 257 249 239 233 232 234 239 243 247 253 260 266 272 278 282 285 288 289 291 293 296 299 301 302 302 303 305 305 306 309 311
260 260 259 258 257 256 256 255 254 254 254 254 254 254 254 254 254 253 253 253 252 252 251 250 247 245 244 241 239 236 231 226 224 225 226 228 231 234 234 235 239 246 255 259 261 263 267 271 270 264 260 260 260 259 252 240 231 228 230 233 238 244 250 258 265 271 278 282 285 287 288 290 292 295 298 299 300 300 301 303 305 305 307 310 312
261 260 259 258 258 258 258 258 258 258 258 257 256 255 254 254 255 254 253 253 252 251 250 250 247 245 244 242 238 232 226 221 221 221 219 220 223 227 229 231 237 245 252 256 259 263 269 269 264 260 258 256 257 255 245 234 227 226 230 234 240 248 255 263 270 278 283 284 286 288 290 292 294 296 297 298 298 299 301 302 303 305 307 311 313
265 265 265 265 265 265 264 264 264 263 263 261 260 259 257 256 255 254 254 253 251 250 250 250 249 247 243 241 238 231 225 223 227 226 219 214 215 220 224 230 238 246 252 257 262 266 268 265 260 257 256 255 255 250 238 229 225 227 233 240 246 252 260 269 277 283 286 286 288 291 292 294 295 295 296 296 296 298 299 299 302 305 308 311 312
269 271 273 274 274 274 273 272 270 269 268 267 265 264 262 260 257 254 252 252 251 249 247 248 250 250 246 242 239 232 225 226 230 228 218 210 209 215 224 232 239 247 253 257 259 262 264 261 258 257 256 253 250 243 233 226 225 231 238 244 250 258 267 275 280 285 288 290 292 293 294 294 294 294 295 295 295 295 296 298 302 306 309 311 311
277 278 278 277 275 274 274 275 277 278 276 275 273 271 269 265 260 254 249 248 250 251 250 248 249 249 245 239 233 226 222 224 223 217 212 210 208 215 227 236 243 249 254 253 253 260 264 262 257 254 251 249 244 236 228 224 228 235 241 246 254 264 273 279 284 288 291 293 294 294 294 293 292 292 293 293 292 292 295 299 304 307 308 310 311
283 282 281 278 276 278 282 290 299 301 298 293 287 280 273 265 257 252 248 245 248 253 254 250 247 243 237 230 224 219 214 213 211 211 214 217 217 223 232 241 248 252 251 250 255 265 266 258 250 245 244 243 237 229 224 226 231 237 243 251 261 271 277 282 287 290 292 293 294 293 292 290 290 290 290 289 289 291 295 301 305 306 309 311 313
293 293 291 291 295 301 307 313 319 318 312 301 291 292 291 275 261 256 251 245 244 249 253 252 247 238 227 217 214 213 211 208 208 213 220 225 230 235 240 246 252 254 252 253 258 260 256 248 242 240 240 238 231 224 224 228 233 240 247 257 268 275 280 284 288 291 292 292 293 292 290 288 288 287 285 285 286 289 295 301 305 307 311 313 315
309 313 313 313 318 323 325 327 327 323 311 290 277 296 320 318 306 274 240 235 237 238 236 235 231 221 210 204 203 206 207 204 204 211 221 229 236 241 243 247 252 254 253 250 247 246 247 244 241 240 239 235 228 225 227 231 237 243 253 263 272 277 281 284 287 288 290 292 292 290 288 287 285 283 282 282 284 289 296 303 306 309 313 315 316
323 326 326 327 330 331 331 330 325 322 320 314 308 315 330 349 10 33 178 216 232 225 197 191 187 181 180 182 186 190 192 193 199 213 226 232 236 239 241 245 250 251 247 244 244 250 249 242 236 236 236 232 230 230 232 236 242 250 260 268 273 276 279 282 285 288 290 291 289 286 284 284 283 280 278 279 283 291 299 304 307 311 314 316 317
326 327 329 332 335 337 339 336 327 321 328 337 341 342 343 348 1 22 105 196 236 251 130 130 127 136 149 159 168 178 188 199 211 225 234 236 236 238 239 242 245 245 243 245 250 252 244 233 230 232 231 230 231 234 237 242 249 257 264 268 270 273 277 281 285 288 289 287 283 281 282 282 281 279 278 280 287 295 300 304 309 313 316 317 318
327 328 331 333 335 338 339 339 336 332 332 339 344 345 349 358 6 19 51 100 354 33 98 109 111 122 138 157 176 190 205 216 223 229 233 234 235 236 236 237 240 244 249 252 250 243 233 227 228 229 228 230 234 237 242 250 256 260 264 266 268 273 278 281 284 286 285 282 280 280 282 283 282 280 279 282 289 295 299 305 312 316 317 317 318
320 323 328 330 330 332 331 330 333 334 333 336 344 343 342 350 2 10 19 30 30 23 34 70 117 140 166 193 204 212 219 222 223 224 227 229 231 232 237 245 250 253 253 248 237 228 225 227 228 227 229 233 238 243 250 255 257 259 261 265 270 275 278 281 283 283 281 279 280 281 284 284 282 279 277 280 287 293 299 306 313 316 316 315 316
316 316 320 324 325 326 328 329 332 338 340 340 346 350 346 348 358 7 14 26 35 34 33 192 222 231 226 214 214 220 223 225 227 228 230 235 242 247 251 254 252 247 239 229 220 219 222 225 226 228 232 238 243 249 253 254 256 259 263 267 272 275 278 280 281 279 278 278 279 281 282 282 278 274 274 278 285 292 300 307 312 313 313 314 314
322 317 317 322 322 319 322 326 330 340 350 356 2 10 15 19 27 33 38 48 57 61 74 117 183 213 216 212 219 225 230 237 245 246 246 249 252 251 248 241 231 220 213 212 215 219 223 226 229 234 238 243 247 250 252 255 258 262 267 270 273 275 276 277 277 276 276 277 278 278 278 276 273 270 272 278 286 293 300 305 307 308 310 311 312
321 319 315 317 317 311 311 315 319 328 340 349 356 3 8 10 11 13 17 27 35 34 43 102 169 211 228 232 234 235 237 242 244 243 242 242 237 229 223 218 211 208 210 215 220 224 228 233 237 240 243 246 249 252 255 259 263 266 268 270 272 274 276 276 276 275 275 276 276 276 274 270 267 267 271 278 286 291 295 298 300 303 306 309 309
306 307 305 305 306 304 303 303 304 305 310 316 321 327 334 337 337 334 331 330 331 334 338 270 235 245 241 231 222 217 217 218 217 217 219 220 216 211 209 210 211 214 218 223 227 232 236 239 241 243 246 249 252 256 260 263 265 267 268 270 272 274 276 276 275 274 274 275 274 273 270 266 264 266 271 279 285 287 289 291 294 299 304 306 306
291 292 292 292 292 294 295 296 296 296 294 292 294 298 305 311 311 309 305 298 289 283 278 269 256 241 224 212 206 201 198 197 199 203 204 205 205 206 208 211 215 218 223 229 234 238 241 243 244 246 249 252 256 260 263 264 265 267 268 270 273 275 275 274 273 272 273 273 272 272 269 266 266 269 274 279 281 282 283 286 290 296 301 303 302
282 282 284 284 285 286 288 290 292 292 292 291 290 289 290 292 292 293 294 293 283 268 253 238 221 208 201 199 198 197 194 194 198 202 204 206 207 209 211 215 220 225 231 236 240 242 244 246 248 250 253 257 259 261 263 264 266 268 269 271 274 275 274 272 270 270 270 271 271 271 270 269 270 273 274 275 276 277 280 284 288 293 297 299 300
274 276 277 279 280 279 279 283 285 286 289 292 293 291 288 284 280 278 280 269 242 224 211 197 189 188 192 197 200 198 197 200 204 207 211 214 215 217 220 225 230 234 238 241 243 246 248 251 253 255 257 259 260 261 263 266 268 270 272 274 275 274 272 270 268 268 270 270 271 271 270 270 271 271 270 271 274 277 280 284 288 291 294 295 296
268 268 269 271 270 262 250 253 265 274 284 286 286 288 289 281 271 263 251 228 212 205 197 190 190 195 201 206 208 208 208 210 213 216 219 221 224 226 230 234 237 239 241 243 246 250 253 255 256 257 258 259 260 262 265 268 270 272 273 274 273 271 268 265 265 266 266 266 266 266 266 265 265 265 265 269 273 276 279 283 287 289 290 291 293
268 267 268 270 271 269 264 261 261 265 275 282 283 288 290 282 270 259 246 227 213 210 211 214 216 221 220 217 215 216 218 220 223 226 227 229 231 233 236 238 239 241 243 247 251 254 256 258 258 259 259 260 263 266 268 270 271 271 272 272 271 268 265 264 264 264 263 261 261 261 261 260 260 260 261 265 270 273 278 282 284 286 287 289 291
272 271 272 273 275 276 275 273 269 270 277 284 286 284 281 276 270 264 251 231 218 217 222 223 223 227 232 229 222 220 223 227 230 232 233 235 236 238 238 240 242 244 247 251 254 256 258 259 260 261 263 264 266 268 269 269 269 269 269 269 267 265 263 263 264 264 261 259 259 259 259 259 258 258 260 263 266 270 274 279 281 283 285 287 290
275 276 277 280 281 278 277 277 278 278 279 280 278 270 264 264 265 262 253 244 238 235 232 225 223 229 234 228 221 221 226 231 233 234 235 235 238 240 242 244 245 247 249 252 255 257 259 260 262 263 265 266 267 268 268 267 267 266 266 265 264 263 262 263 264 263 261 260 259 259 258 257 257 258 259 262 265 269 273 275 277 279 282 285 288
Height
3157 3158 3160 3161 3163 3165 3166 3168 3170 3172 3174 3175 3176 3178 3180 3181 3183 3185 3186 3188 3189 3191 3192 3194 3195 3196 3197 3199 3200 3202 3203 3204 3205 3205 3206 3207 3207 3207 3208 3208 3209 3209 3209 3209 3210 3209 3209 3209 3209 3208 3207 3206 3206 3205 3205 3204 3204 3203 3203 3203 3202 3201 3201 3200 3200 3199 3198 3198 3197 3197 3196 3195 3194 3194 3193 3193 3192 3192 3192 3191 3191 3191 3190 3190 3189
3155 3156 3158 3159 3160 3162 3164 3165 3167 3169 3170 3172 3173 3175 3177 3179 3180 3182 3183 3185 3187 3189 3190 3192 3193 3194 3195 3196 3198 3199 3200 3201 3202 3203 3203 3204 3205 3205 3205 3206 3206 3207 3207 3207 3207 3207 3207 3207 3207 3206 3205 3205 3204 3204 3203 3203 3202 3202 3201 3201 3200 3200 3199 3199 3198 3198 3197 3197 3196 3196 3195 3195 3194 3193 3192 3192 3191 3190 3190 3189 3188 3188 3187 3187 3186
3153 3155 3156 3157 3158 3160 3162 3163 3164 3166 3167 3169 3170 3172 3174 3176 3178 3179 3180 3182 3184 3186 3188 3189 3190 3191 3192 3193 3195 3196 3198 3199 3199 3200 3201 3202 3202 3202 3203 3204 3204 3205 3205 3205 3205 3204 3204 3204 3204 3204 3203 3203 3202 3202 3201 3201 3201 3200 3200 3199 3199 3198 3198 3197 3197 3197 3196 3195 3195 3195 3194 3193 3193 3191 3191 3190 3189 3188 3187 3186 3186 3185 3184 3184 3183
3150 3152 3153 3155 3156 3158 3159 3160 3161 3162 3164 3165 3167 3169 3172 3173 3175 3176 3178 3179 3181 3183 3185 3187 3188 3189 3189 3191 3192 3194 3195 3196 3197 3197 3198 3199 3199 3200 3200 3201 3202 3202 3202 3202 3202 3202 3202 3202 3202 3201 3201 3201 3200 3200 3199 3199 3198 3198 3198 3197 3197 3196 3196 3196 3196 3195 3195 3194 3194 3193 3192 3192 3191 3190 3189 3188 3187 3186 3186 3185 3184 3183 3182 3181 3181
3147 3149 3151 3152 3154 3155 3156 3157 3158 3159 3161 3162 3164 3167 3169 3170 3171 3173 3174 3176 3178 3180 3182 3183 3185 3186 3187 3188 3190 3191 3193 3194 3194 3195 3195 3196 3197 3197 3198 3198 3199 3199 3200 3200 3200 3199 3199 3199 3199 3199 3198 3198 3198 3198 3197 3197 3196 3196 3196 3195 3195 3194 3194 3194 3194 3193 3193 3193 3193 3192 3191 3191 3190 3188 3187 3187 3186 3185 3184 3183 3182 3181 3180 3180 3179
3144 3146 3148 3149 3150 3152 3153 3154 3155 3156 3158 3159 3162 3164 3165 3167 3168 3169 3171 3173 3175 3177 3179 3180 3182 3183 3184 3186 3187 3189 3190 3191 3192 3192 3193 3193 3194 3194 3195 3195 3196 3196 3197 3197 3197 3197 3197 3197 3197 3196 3196 3196 3196 3195 3194 3194 3193 3192 3193 3193 3192 3192 3192 3191 3191 3191 3191 3191 3191 3191 3190 3189 3189 3187 3185 3184 3184 3183 3182 3181 3181 3179 3178 3178 3178
3141 3143 3145 3146 3147 3149 3150 3151 3152 3154 3155 3157 3159 3160 3162 3163 3164 3166 3168 3170 3171 3173 3175 3177 3179 3180 3182 3183 3184 3186 3187 3188 3189 3189 3189 3190 3191 3191 3192 3192 3193 3193 3194 3194 3194 3195 3195 3194 3194 3194 3193 3193 3193 3192 3192 3191 3190 3190 3190 3190 3190 3189 3189 3189 3189 3188 3189 3189 3189 3189 3189 3187 3186 3185 3183 3182 3181 3181 3180 3179 3179 3178 3176 3176 3176
3138 3140 3141 3143 3144 3146 3147 3149 3150 3151 3153 3154 3156 3157 3159 3160 3161 3163 3164 3166 3168 3170 3171 3174 3175 3177 3178 3179 3181 3182 3183 3184 3185 3186 3186 3187 3188 3189 3189 3189 3190 3190 3191 3191 3192 3192 3192 3191 3191 3191 3190 3190 3189 3189 3189 3188 3188 3188 3188 3187 3187 3187 3187 3186 3186 3186 3186 3187 3187 3187 3186 3185 3184 3183 3181 3180 3179 3178 3177 3176 3176 3176 3174 3174 3173
3135 3137 3138 3139 3141 3143 3145 3146 3147 3149 3150 3151 3153 3154 3155 3157 3158 3159 3161 3162 3164 3166 3168 3170 3172 3173 3175 3176 3177 3178 3179 3180 3182 3183 3183 3184 3185 3186 3186 3186 3186 3187 3188 3188 3189 3189 3189 3188 3188 3187 3187 3187 3186 3186 3185 3185 3185 3185 3185 3185 3185 3185 3184 3184 3184 3184 3184 3184 3184 3184 3183 3182 3182 3180 3179 3177 3176 3175 3174 3173 3173 3172 3171 3171 3171
3131 3133 3135 3136 3138 3140 3142 3143 3144 3146 3147 3148 3150 3151 3152 3153 3155 3156 3157 3159 3161 3162 3164 3166 3167 3169 3170 3172 3173 3174 3175 3177 3179 3180 3180 3181 3182 3182 3183 3183 3183 3183 3184 3185 3186 3186 3186 3185 3185 3185 3184 3184 3183 3182 3182 3182 3182 3182 3182 3182 3182 3182 3182 3182 3181 3181 3181 3181 3181 3180 3180 3180 3179 3177 3176 3175 3173 3172 3171 3170 3169 3168 3167 3167 3167
3128 3130 3131 3133 3135 3137 3139 3140 3141 3143 3144 3145 3147 3148 3149 3150 3152 3153 3154 3155 3157 3159 3160 3161 3163 3165 3166 3167 3169 3170 3171 3173 3175 3176 3176 3177 3178 3179 3180 3180 3180 3180 3181 3182 3183 3183 3183 3183 3183 3182 3181 3181 3180 3179 3179 3179 3179 3179 3179 3179 3179 3179 3179 3179 3179 3179 3178 3178 3178 3177 3176 3176 3176 3174 3172 3171 3170 3169 3167 3166 3165 3165 3163 3162 3162
3125 3126 3128 3130 3132 3134 3135 3137 3138 3140 3141 3142 3143 3145 3146 3147 3148 3149 3150 3152 3153 3155 3156 3157 3159 3160 3162 3163 3164 3165 3167 3169 3171 3172 3173 3174 3175 3175 3176 3177 3177 3176 3176 3178 3179 3180 3180 3181 3180 3179 3179 3178 3176 3175 3175 3175 3175 3175 3175 3175 3176 3176 3176 3176 3176 3176 3175 3175 3174 3174 3173 3173 3172 3171 3169 3167 3167 3166 3165 3164 3162 3161 3159 3158 3157
3122 3123 3125 3127 3129 3130 3132 3133 3135 3136 3138 3139 3140 3141 3143 3143 3145 3146 3147 3149 3150 3150 3152 3153 3155 3156 3157 3158 3160 3161 3163 3165 3167 3168 3169 3170 3171 3172 3173 3174 3173 3172 3172 3173 3175 3176 3177 3177 3176 3175 3175 3174 3172 3171 3171 3171 3171 3171 3172 3172 3172 3173 3172 3173 3172 3172 3172 3171 3171 3171 3170 3169 3168 3167 3166 3164 3164 3163 3162 3161 3159 3157 3156 3154 3153
3119 3120 3122 3124 3125 3127 3128 3129 3131 3133 3134 3136 3136 3137 3138 3140 3141 3142 3143 3144 3145 3146 3148 3149 3150 3152 3153 3154 3156 3157 3159 3161 3162 3163 3165 3166 3167 3167 3169 3169 3169 3168 3169 3170 3172 3173 3174 3173 3171 3170 3170 3169 3169 3168 3167 3166 3167 3167 3168 3168 3169 3169 3169 3169 3169 3168 3168 3168 3167 3167 3166 3165 3164 3164 3163 3162 3161 3160 3159 3158 3156 3154 3152 3151 3149
3116 3117 3118 3120 3122 3123 3124 3126 3127 3129 3130 3131 3132 3133 3134 3136 3137 3138 3139 3140 3141 3142 3144 3145 3146 3148 3149 3150 3152 3153 3154 3156 3157 3159 3161 3162 3163 3163 3164 3164 3164 3164 3165 3167 3168 3169 3170 3168 3166 3165 3164 3164 3164 3163 3162 3162 3162 3163 3163 3164 3165 3165 3165 3165 3165 3165 3164 3163 3162 3162 3162 3161 3161 3160 3159 3158 3158 3156 3155 3154 3152 3150 3149 3147 3146
3112 3113 3114 3116 3117 3119 3120 3122 3123 3124 3126 3127 3128 3129 3130 3132 3133 3134 3135 3136 3137 3138 3139 3140 3142 3143 3145 3146 3147 3148 3150 3151 3152 3155 3157 3158 3158 3158 3159 3160 3160 3160 3161 3163 3163 3165 3165 3163 3161 3160 3160 3160 3160 3159 3158 3158 3158 3159 3159 3160 3161 3161 3161 3161 3161 3161 3160 3160 3159 3158 3158 3158 3158 3157 3156 3155 3154 3153 3152 3150 3149 3147 3145 3143 3142
3107 3109 3110 3112 3113 3115 3116 3118 3119 3120 3121 3122 3123 3124 3126 3127 3129 3129 3130 3132 3132 3133 3134 3136 3137 3139 3140 3141 3142 3144 3145 3146 3148 3150 3152 3153 3154 3154 3154 3155 3155 3155 3156 3157 3158 3160 3160 3159 3156 3156 3156 3157 3156 3155 3154 3154 3154 3155 3156 3156 3157 3157 3157 3157 3157 3156 3156 3156 3156 3155 3155 3155 3154 3154 3153 3152 3151 3150 3149 3147 3145 3143 3141 3139 3137
3103 3105 3107 3108 3110 3111 3113 3114 3115 3116 3116 3117 3119 3120 3121 3123 3124 3125 3126 3127 3128 3129 3131 3132 3133 3134 3135 3137 3138 3139 3140 3141 3143 3145 3147 3148 3149 3149 3150 3150 3150 3150 3152 3154 3154 3155 3154 3153 3152 3152 3153 3153 3152 3151 3151 3151 3151 3151 3152 3152 3152 3152 3153 3153 3153 3152 3152 3152 3152 3152 3151 3151 3151 3150 3149 3149 3148 3147 3146 3144 3142 3140 3137 3135 3132
3101 3103 3104 3106 3108 3109 3110 3110 3111 3112 3112 3113 3114 3115 3117 3118 3119 3120 3121 3122 3123 3125 3126 3127 3128 3129 3131 3132 3133 3135 3135 3136 3138 3140 3142 3143 3144 3144 3145 3144 3144 3145 3148 3150 3150 3150 3149 3148 3148 3148 3148 3148 3148 3148 3147 3147 3147 3147 3147 3148 3148 3148 3148 3148 3148 3148 3149 3149 3149 3148 3148 3147 3147 3147 3146 3145 3145 3144 3142 3140 3138 3136 3133 3131 3128
3100 3101 3102 3103 3104 3105 3106 3106 3107 3107 3108 3109 3110 3111 3112 3112 3113 3114 3116 3117 3118 3119 3120 3121 3122 3124 3125 3127 3128 3129 3129 3131 3132 3134 3136 3138 3139 3139 3139 3139 3140 3141 3142 3143 3144 3144 3144 3144 3144 3144 3143 3143 3143 3143 3143 3142 3142 3142 3143 3143 3143 3144 3144 3144 3144 3144 3145 3145 3145 3144 3144 3144 3144 3144 3143 3142 3142 3140 3139 3136 3134 3132 3129 3127 3124
3097 3098 3098 3099 3100 3101 3101 3102 3103 3104 3105 3106 3106 3106 3106 3107 3107 3109 3110 3111 3112 3113 3114 3115 3116 3118 3119 3121 3122 3123 3124 3125 3127 3129 3130 3132 3133 3133 3132 3133 3135 3136 3137 3137 3138 3138 3138 3139 3139 3139 3138 3138 3139 3138 3138 3138 3137 3137 3138 3138 3139 3140 3139 3139 3140 3141 3142 3142 3141 3141 3141 3141 3141 3141 3140 3139 3138 3137 3135 3132 3130 3128 3126 3123 3120
3093 3093 3094 3095 3096 3096 3097 3098 3099 3100 3101 3102 3102 3102 3102 3102 3103 3103 3104 3105 3105 3106 3108 3109 3110 3111 3113 3114 3116 3117 3118 3120 3121 3123 3125 3125 3126 3127 3126 3127 3131 3132 3132 3132 3133 3133 3134 3134 3134 3134 3134 3134 3134 3134 3133 3133 3133 3133 3134 3135 3135 3136 3136 3136 3137 3138 3138 3138 3138 3138 3138 3138 3138 3137 3137 3136 3134 3132 3130 3129 3127 3124 3122 3119 3116
3087 3088 3089 3090 3091 3092 3093 3094 3095 3096 3097 3097 3098 3098 3098 3098 3098 3098 3098 3098 3098 3099 3101 3102 3103 3104 3106 3107 3109 3111 3112 3114 3115 3117 3119 3119 3120 3121 3120 3121 3125 3127 3128 3128 3129 3130 3130 3130 3130 3130 3129 3129 3129 3129 3129 3129 3129 3129 3130 3131 3132 3132 3133 3133 3134 3134 3134 3135 3135 3135 3135 3135 3135 3134 3133 3132 3130 3129 3127 3125 3123 3120 3117 3115 3113
3082 3083 3084 3085 3087 3088 3089 3089 3090 3090 3091 3092 3092 3092 3093 3093 3093 3093 3093 3092 3092 3092 3093 3094 3095 3096 3098 3099 3101 3102 3104 3107 3109 3112 3113 3113 3114 3116 3116 3116 3118 3121 3123 3124 3125 3125 3125 3126 3126 3125 3125 3125 3125 3125 3125 3125 3125 3126 3127 3127 3128 3128 3129 3130 3131 3131 3131 3132 3133 3133 3132 3132 3132 3131 3130 3128 3126 3125 3123 3121 3118 3115 3113 3111 3109
3077 3078 3079 3081 3082 3083 3084 3085 3085 3086 3086 3086 3086 3086 3087 3086 3086 3086 3086 3086 3086 3086 3086 3087 3087 3089 3091 3092 3093 3095 3097 3100 3103 3105 3107 3108 3109 3110 3111 3112 3113 3114 3116 3117 3118 3119 3120 3121 3121 3121 3120 3121 3121 3121 3121 3121 3122 3122 3123 3124 3124 3125 3126 3127 3128 3128 3129 3129 3130 3130 3130 3129 3129 3127 3126 3124 3122 3121 3119 3116 3114 3111 3109 3107 3106
3073 3074 3074 3075 3077 3077 3077 3078 3079 3080 3080 3080 3080 3080 3080 3080 3079 3080 3080 3080 3081 3081 3080 3080 3081 3082 3083 3084 3085 3086 3089 3092 3095 3097 3100 3102 3103 3104 3107 3108 3108 3108 3110 3111 3112 3114 3115 3115 3116 3116 3116 3116 3117 3117 3117 3117 3118 3119 3120 3121 3122 3123 3124 3124 3125 3126 3127 3127 3127 3127 3126 3126 3125 3123 3122 3120 3118 3117 3115 3112 3110 3108 3106 3104 3103
3068 3069 3069 3070 3071 3071 3071 3071 3072 3072 3073 3073 3073 3073 3073 3073 3072 3072 3072 3073 3075 3076 3075 3075 3075 3076 3076 3077 3077 3079 3082 3085 3087 3089 3091 3094 3096 3098 3101 3102 3103 3103 3105 3107 3108 3108 3109 3110 3110 3111 3111 3111 3112 3113 3113 3114 3114 3116 3117 3118 3119 3120 3121 3122 3123 3123 3124 3124 3124 3123 3122 3121 3120 3119 3118 3116 3114 3112 3110 3108 3107 3105 3103 3101 3100
3064 3064 3064 3065 3065 3065 3065 3066 3066 3066 3066 3065 3065 3065 3065 3065 3064 3064 3064 3065 3067 3068 3069 3069 3070 3069 3069 3069 3069 3071 3073 3076 3078 3080 3083 3085 3088 3092 3094 3096 3098 3100 3101 3102 3103 3104 3104 3105 3106 3106 3106 3107 3108 3109 3110 3111 3111 3113 3114 3115 3117 3118 3119 3119 3120 3120 3120 3120 3120 3119 3118 3117 3116 3115 3114 3112 3110 3108 3106 3105 3103 3102 3100 3098 3096
3059 3059 3059 3059 3059 3059 3060 3059 3059 3059 3058 3057 3057 3057 3057 3056 3055 3055 3056 3057 3058 3059 3061 3063 3065 3065 3064 3063 3063 3063 3065 3069 3072 3074 3076 3078 3081 3085 3089 3092 3094 3096 3097 3097 3098 3099 3099 3100 3101 3102 3102 3104 3105 3106 3107 3108 3109 3110 3112 3113 3114 3115 3116 3116 3117 3117 3117 3116 3116 3115 3115 3114 3112 3111 3110 3109 3107 3105 3103 3102 3100 3099 3097 3095 3093
3054 3054 3053 3053 3054 3054 3053 3053 3052 3052 3050 3049 3048 3047 3047 3047 3046 3045 3046 3048 3049 3050 3051 3054 3057 3058 3057 3056 3057 3059 3062 3066 3069 3068 3068 3070 3074 3079 3084 3087 3089 3091 3092 3093 3093 3094 3095 3096 3097 3098 3099 3100 3102 3103 3104 3105 3107 3108 3109 3111 3112 3112 3113 3113 3113 3113 3113 3113 3112 3112 3111 3110 3109 3108 3107 3105 3104 3102 3100 3099 3097 3096 3094 3092 3090
3046 3046 3046 3047 3047 3046 3046 3046 3045 3044 3043 3041 3039 3038 3038 3037 3035 3035 3036 3037 3039 3040 3042 3043 3045 3048 3048 3049 3052 3056 3060 3063 3065 3065 3063 3063 3068 3074 3078 3082 3084 3086 3087 3088 3090 3090 3092 3093 3094 3094 3096 3097 3099 3100 3101 3103 3104 3106 3107 3108 3109 3109 3110 3109 3109 3110 3110 3109 3109 3108 3107 3106 3105 3104 3103 3102 3101 3099 3098 3096 3095 3093 3091 3089 3088
3039 3039 3040 3040 3039 3039 3039 3038 3037 3035 3034 3033 3032 3030 3028 3026 3025 3025 3025 3027 3028 3029 3029 3031 3034 3037 3040 3042 3046 3053 3058 3060 3061 3063 3062 3060 3062 3069 3074 3078 3080 3082 3083 3084 3086 3087 3088 3090 3090 3091 3092 3094 3096 3097 3098 3100 3102 3103 3104 3105 3106 3106 3106 3106 3106 3106 3106 3105 3105 3105 3104 3103 3102 3101 3100 3099 3098 3096 3095 3094 3092 3090 3089 3087 3085
3034 3034 3034 3033 3033 3033 3032 3030 3029 3027 3025 3024 3024 3020 3016 3011 3008 3009 3012 3016 3017 3015 3014 3018 3023 3026 3030 3035 3039 3045 3052 3056 3057 3059 3061 3061 3061 3065 3071 3074 3077 3079 3079 3080 3081 3082 3084 3086 3087 3087 3089 3091 3092 3094 3096 3097 3099 3100 3101 3102 3102 3102 3102 3103 3103 3103 3102 3102 3101 3101 3100 3099 3099 3098 3097 3096 3095 3093 3092 3091 3090 3088 3086 3085 3083
3030 3029 3029 3028 3027 3027 3025 3023 3022 3018 3016 3014 3012 3008 3003 2995 2989 2992 3000 3004 3001 2998 3001 3006 3009 3013 3020 3027 3031 3035 3041 3048 3053 3055 3057 3059 3061 3064 3068 3072 3074 3075 3076 3076 3076 3078 3079 3082 3084 3084 3085 3087 3089 3091 3093 3094 3096 3097 3098 3098 3098 3099 3099 3099 3099 3099 3098 3098 3098 3098 3097 3096 3095 3095 3093 3092 3091 3090 3089 3088 3087 3085 3084 3082 3080
3026 3026 3025 3024 3023 3021 3019 3017 3014 3011 3009 3007 3002 3000 2997 2989 2980 2981 2984 2983 2982 2985 2992 2998 3002 3007 3013 3018 3021 3028 3034 3039 3045 3051 3053 3055 3059 3063 3065 3068 3070 3070 3071 3071 3072 3073 3075 3078 3081 3082 3083 3084 3086 3088 3090 3091 3092 3093 3094 3094 3095 3095 3095 3095 3095 3094 3094 3095 3095 3094 3094 3093 3092 3091 3090 3089 3088 3088 3087 3086 3084 3082 3080 3079 3077
3023 3023 3022 3020 3019 3017 3014 3012 3010 3007 3006 3005 3000 2997 2997 2994 2989 2980 2970 2968 2972 2974 2978 2985 2988 2989 2997 3007 3013 3021 3029 3034 3039 3046 3050 3053 3057 3060 3062 3064 3065 3065 3066 3067 3067 3069 3071 3074 3078 3079 3080 3082 3083 3085 3086 3088 3089 3090 3090 3090 3091 3091 3091 3091 3091 3091 3091 3091 3091 3091 3091 3090 3089 3088 3087 3086 3086 3085 3084 3083 3081 3079 3077 3076 3074
3021 3021 3019 3018 3017 3015 3013 3011 3008 3007 3006 3005 3001 2998 2997 2999 2999 2984 2967 2968 2977 2973 2971 2977 2974 2964 2973 2995 3008 3016 3024 3030 3035 3042 3047 3050 3054 3056 3058 3060 3061 3061 3062 3063 3064 3065 3068 3071 3074 3076 3078 3079 3081 3082 3084 3085 3086 3086 3087 3087 3087 3087 3087 3087 3087 3087 3088 3088 3088 3088 3087 3087 3086 3085 3084 3083 3083 3082 3081 3079 3077 3076 3074 3073 3072
3021 3020 3019 3017 3016 3015 3013 3012 3010 3008 3007 3006 3003 3000 2997 2997 2996 2984 2973 2977 2987 2984 2982 2987 2981 2970 2978 2997 3009 3016 3025 3030 3033 3039 3044 3047 3051 3053 3053 3055 3056 3056 3058 3059 3060 3062 3064 3067 3070 3073 3075 3076 3078 3079 3080 3082 3082 3083 3083 3083 3083 3083 3083 3084 3084 3084 3084 3085 3085 3084 3084 3083 3082 3082 3081 3080 3080 3079 3077 3076 3074 3073 3072 3070 3069
3021 3020 3018 3017 3016 3014 3013 3012 3011 3009 3008 3007 3004 3001 2999 2996 2994 2991 2988 2990 2994 2994 2994 2995 2991 2989 2998 3008 3015 3022 3028 3031 3034 3039 3042 3044 3047 3048 3049 3051 3052 3052 3054 3055 3057 3059 3061 3064 3067 3069 3071 3073 3074 3075 3077 3078 3079 3079 3080 3080 3080 3080 3080 3080 3081 3081 3081 3081 3081 3081 3080 3080 3079 3078 3077 3077 3076 3075 3074 3072 3071 3070 3069 3068 3066
3020 3020 3018 3016 3015 3014 3012 3012 3011 3009 3008 3007 3005 3002 3001 2998 2996 2997 2999 2999 3000 3001 3001 2998 2995 2999 3009 3016 3022 3027 3030 3031 3034 3037 3039 3041 3043 3044 3045 3047 3048 3048 3050 3052 3054 3056 3059 3061 3064 3066 3068 3070 3071 3072 3073 3074 3075 3076 3076 3076 3076 3077 3077 3077 3077 3077 3078 3078 3078 3077 3077 3076 3075 3075 3074 3074 3073 3072 3070 3069 3068 3067 3066 3065 3064
3019 3018 3017 3016 3015 3014 3012 3011 3010 3009 3007 3007 3006 3004 3003 3002 3001 3000 3002 3004 3005 3005 3004 3003 3004 3010 3017 3021 3025 3028 3030 3032 3033 3034 3036 3038 3039 3040 3042 3043 3043 3044 3046 3048 3050 3053 3055 3058 3060 3062 3064 3066 3067 3068 3070 3071 3071 3072 3072 3073 3073 3073 3073 3073 3074 3074 3074 3075 3074 3074 3073 3072 3071 3071 3071 3070 3069 3068 3067 3066 3065 3064 3064 3063 3062
3018 3017 3017 3015 3014 3013 3012 3010 3009 3008 3007 3006 3006 3006 3005 3005 3005 3005 3005 3006 3008 3009 3010 3012 3015 3019 3022 3024 3025 3028 3030 3031 3032 3033 3034 3036 3036 3037 3038 3038 3039 3041 3044 3046 3048 3050 3052 3054 3057 3059 3060 3062 3064 3065 3066 3067 3068 3068 3069 3069 3069 3070 3069 3070 3070 3071 3071 3071 3071 3070 3069 3068 3068 3067 3067 3066 3066 3065 3064 3063 3063 3062 3061 3061 3060
3017 3017 3016 3015 3013 3012 3011 3010 3008 3008 3007 3006 3006 3006 3007 3007 3007 3008 3009 3009 3010 3012 3014 3016 3018 3020 3022 3024 3025 3027 3029 3030 3031 3032 3032 3033 3033 3034 3034 3035 3037 3040 3042 3044 3046 3047 3049 3052 3054 3055 3057 3059 3060 3061 3062 3063 3064 3065 3065 3065 3065 3066 3066 3066 3066 3067 3067 3067 3067 3066 3066 3065 3064 3064 3063 3063 3063 3062 3061 3061 3060 3059 3059 3058 3057
3016 3016 3015 3014 3013 3012 3010 3009 3008 3007 3007 3007 3006 3006 3006 3007 3008 3008 3009 3010 3011 3013 3015 3017 3019 3021 3022 3024 3025 3026 3027 3028 3029 3030 3030 3030 3031 3031 3032 3034 3036 3038 3041 3043 3044 3045 3047 3049 3050 3052 3054 3056 3056 3058 3059 3060 3061 3061 3061 3061 3062 3062 3062 3062 3063 3063 3063 3064 3063 3063 3062 3061 3061 3060 3060 3060 3060 3059 3059 3058 3057 3057 3056 3056 3055
3014 3014 3013 3012 3012 3011 3009 3008 3008 3007 3006 3006 3006 3006 3006 3006 3007 3008 3008 3009 3010 3012 3013 3015 3017 3018 3020 3021 3023 3024 3025 3026 3026 3027 3027 3028 3029 3029 3031 3033 3035 3037 3039 3041 3041 3042 3044 3046 3048 3050 3051 3052 3053 3055 3056 3056 3057 3057 3058 3058 3058 3058 3058 3059 3059 3060 3060 3060 3060 3059 3059 3058 3057 3057 3057 3057 3057 3057 3056 3055 3054 3054 3054 3053 3052
3013 3012 3011 3010 3009 3009 3008 3008 3007 3006 3006 3005 3005 3005 3005 3005 3006 3007 3007 3008 3008 3009 3010 3012 3014 3016 3017 3019 3020 3021 3022 3023 3024 3024 3025 3026 3027 3028 3030 3032 3033 3035 3036 3038 3039 3040 3042 3043 3045 3047 3048 3049 3051 3051 3052 3052 3053 3053 3054 3054 3054 3054 3055 3055 3056 3056 3057 3057 3056 3056 3055 3055 3054 3054 3054 3054 3054 3054 3053 3053 3052 3051 3051 3051 3050
3012 3011 3010 3009 3008 3008 3008 3008 3007 3007 3007 3006 3006 3006 3005 3006 3006 3006 3007 3007 3008 3008 3009 3011 3012 3014 3015 3016 3017 3018 3020 3021 3022 3023 3024 3025 3026 3028 3029 3030 3032 3033 3034 3035 3037 3038 3039 3041 3043 3044 3045 3046 3047 3048 3048 3049 3049 3049 3050 3050 3050 3051 3052 3052 3053 3053 3053 3053 3053 3053 3052 3052 3051 3051 3051 3052 3052 3051 3051 3050 3049 3049 3048 3048 3048
3010 3010 3009 3009 3008 3008 3008 3008 3008 3008 3008 3008 3008 3007 3006 3006 3006 3006 3006 3007 3007 3008 3009 3011 3011 3012 3014 3015 3016 3017 3018 3019 3020 3022 3023 3024 3025 3026 3028 3029 3030 3031 3032 3034 3035 3036 3037 3039 3040 3041 3042 3043 3044 3044 3045 3045 3045 3045 3046 3046 3047 3048 3049 3049 3050 3050 3050 3050 3050 3050 3049 3049 3049 3049 3049 3049 3049 3048 3048 3047 3046 3046 3046 3046 3045
3009 3009 3009 3008 3008 3008 3008 3008 3008 3008 3008 3008 3008 3008 3008 3007 3006 3006 3006 3006 3007 3008 3009 3010 3011 3012 3012 3013 3014 3016 3017 3018 3020 3021 3022 3023 3024 3025 3026 3027 3028 3029 3030 3031 3032 3033 3035 3036 3036 3038 3039 3039 3040 3040 3041 3041 3041 3042 3042 3043 3044 3045 3045 3046 3046 3047 3047 3047 3047 3047 3046 3046 3046 3046 3046 3046 3046 3045 3045 3044 3043 3043 3043 3043 3043
3008 3008 3008 3008 3007 3007 3007 3007 3007 3007 3007 3007 3007 3007 3007 3007 3006 3006 3006 3007 3007 3007 3007 3008 3009 3011 3012 3013 3014 3015 3016 3017 3019 3020 3021 3022 3023 3023 3024 3025 3026 3027 3028 3029 3030 3031 3032 3033 3033 3034 3035 3035 3036 3036 3036 3037 3037 3038 3039 3040 3041 3042 3042 3043 3043 3043 3044 3044 3044 3044 3044 3043 3043 3043 3043 3043 3043 3043 3042 3041 3041 3041 3040 3040 3040
3006 3006 3006 3006 3006 3006 3006 3006 3006 3006 3005 3005 3005 3006 3006 3006 3006 3005 3005 3006 3006 3005 3005 3006 3008 3009 3010 3011 3012 3013 3014 3016 3017 3018 3019 3020 3021 3021 3022 3023 3024 3025 3026 3027 3028 3029 3029 3030 3030 3031 3031 3031 3031 3032 3032 3033 3034 3034 3035 3037 3038 3038 3039 3040 3040 3040 3041 3041 3041 3041 3041 3040 3040 3040 3040 3040 3040 3040 3039 3038 3038 3038 3038 3038 3038